Regional Weather Roundup
Issued by NWS Bismarck, ND

Home | Current Version | Previous Version | Text Only | Print | Product List | Glossary On
Versions: 1 2 3 4 5 6 7 8 9 10 11 12 13 14 15 16 17 18 19 20 21 22 23 24 25 26 27 28 29 30 31 32 33 34 35 36 37 38 39 40 41 42 43 44 45 46 47 48 49 50
000
ASUS43 KBIS 010302
RWRBIS

NWR BROADCAST TEXT
NATIONAL WEATHER SERVICE BISMARCK ND
1000 PM CDT SAT APR 30 2016

NOTE: "FAIR" INDICATES FEW OR NO CLOUDS BELOW 12,000 FEET WITH NO
SIGNIFICANT WEATHER AND/OR OBSTRUCTIONS TO VISIBILITY.


CITY           SKY/WX    TMP DP  RH WIND       PRES   REMARKS
WILLISTON      CLEAR     49  30  48 N6        30.29R
MINOT          CLEAR     50  26  39 NE6       30.27R
MINOT AFB      CLEAR     52  28  40 E7        30.27R
BISMARCK       CLEAR     49  30  48 NE8       30.25R
DICKINSON      CLEAR     43  27  53 NE7       30.25R
GARRISON         N/A     45  29  53 N6        30.26R
HETTINGER ARPT CLOUDY    41  27  57 NE6       30.25R
JAMESTOWN      CLOUDY    48  27  44 NE13      30.21R
CARRINGTON     FAIR      50  30  46 E6        30.26R
OAKES            N/A    N/A N/A N/A MISG        N/A
STANLEY        FAIR      50  28  43 NE7       30.31R
$$

CITY           SKY/WX    TMP DP  RH WIND       PRES   REMARKS
GRAND FORKS    PTCLDY    51  29  42 NE12      30.25R
GRAND FORKS AF CLEAR     49  27  43 E10       30.25R
DEVILS LAKE    CLEAR     48  30  49 NE8       30.26R
FARGO          CLOUDY    53  28  38 NE14      30.19R
GRAFTON        FAIR      45  28  53 E8        30.28S
GWINNER        FAIR      50  32  50 NE14      30.17R
LANGDON        FAIR      46  30  53 NE7       30.28R
$$

CITY           SKY/WX    TMP DP  RH WIND       PRES   REMARKS
ABERDEEN       CLOUDY    50  31  48 NE9       30.14R
MOBRIDGE       CLOUDY    50  29  44 NE12      30.16R
BUFFALO          N/A     42  29  59 NE10      30.18R
RAPID CITY     PTCLDY    40  31  70 N10       30.19R
GLASGOW        CLEAR     49  32  52 E10       30.29R
SIDNEY         CLEAR     45  30  57 CALM      30.29R
WOLF POINT     CLEAR     50  34  54 NE6       30.29R
GLENDIVE       MOCLDY    48  34  57 N7        30.31R
MILES CITY     CLEAR     51  30  44 NE7       30.26R
BAKER          CLEAR     41  33  73 NE6       30.27R
$$

CITY           SKY/WX    TMP DP  RH WIND       PRES   REMARKS
BILLINGS       CLOUDY    49  34  56 N5        30.28R
GREAT FALLS    CLOUDY    45  34  65 E8        30.30R
$$





USA.gov is the U.S. government's official web portal to all federal, state and local government web resources and services.